GW0282 Weather Reports


time (UTC)temp
C
wind
direction
speed
KPH
gust
KPH
rain 1hr
cm
rain 24hr
cm
rain mn
cm
humidity
%
barometer
mb
20260503230117 33 311 8.0 12.9 0.00 0.00 0.00 28 1007.7
20260503225614 33 282 6.4 11.3 0.00 0.00 0.00 28 1007.6
20260503225113 34 275 3.2 8.0 0.00 0.00 0.00 30 1007.8
20260503224611 34 321 3.2 3.2 0.00 0.00 0.00 28 1008.0
20260503224109 33 354 8.0 9.7 0.00 0.00 0.00 29 1007.9
20260503223607 33 300 4.8 11.3 0.00 0.00 0.00 31 1007.8
20260503223102 34 320 6.4 9.7 0.00 0.00 0.00 28 1008.1
20260503222600 34 251 1.6 3.2 0.00 0.00 0.00 26 1008.0
20260503222058 32 296 4.8 8.0 0.00 0.00 0.00 33 1008.1
20260503221556 32 298 6.4 9.7 0.00 0.00 0.00 34 1008.1
20260503221053 31 297 3.2 14.5 0.00 0.00 0.00 33 1008.3
20260503220549 32 277 8.0 9.7 0.00 0.00 0.00 32 1008.5
20260503220046 31 295 4.8 16.1 0.00 0.00 0.00 33 1008.6
20260503215543 31 294 11.3 14.5 0.00 0.00 0.00 33 1008.5
20260503215040 31 283 4.8 14.5 0.00 0.00 0.00 33 1008.6
20260503214539 32 275 6.4 9.7 0.00 0.00 0.00 30 1008.5
20260503214035 33 266 4.8 8.0 0.00 0.00 0.00 30 1008.7
20260503213533 33 329 3.2 9.7 0.00 0.00 0.00 32 1008.5
20260503213030 33 192 1.6 3.2 0.00 0.00 0.00 29 1008.8
20260503212527 33 266 3.2 3.2 0.00 0.00 0.00 30 1008.9
20260503212024 32 226 1.6 8.0 0.00 0.00 0.00 29 1009.0
20260503211521 33 291 4.8 8.0 0.00 0.00 0.00 29 1009.0
20260503211017 33 153 0.0 3.2 0.00 0.00 0.00 30 1009.1
20260503210514 33 223 1.6 4.8 0.00 0.00 0.00 31 1008.8
20260503210010 32 260 1.6 8.0 0.00 0.00 0.00 31 1009.3
20260503205506 32 121 1.6 3.2 0.00 0.00 0.00 30 1009.2
20260503205003 32 201 3.2 4.8 0.00 0.00 0.00 34 1009.5
20260503204500 32 138 1.6 8.0 0.00 0.00 0.00 35 1009.1
20260503203956 32 279 4.8 8.0 0.00 0.00 0.00 35 1009.4
20260503203454 32 285 6.4 9.7 0.00 0.00 0.00 33 1009.4
20260503202950 31 257 6.4 8.0 0.00 0.00 0.00 35 1009.5
20260503202449 31 158 1.6 3.2 0.00 0.00 0.00 37 1009.6
20260503201947 30 3 6.4 12.9 0.00 0.00 0.00 42 1009.7
20260503201444 30 274 6.4 8.0 0.00 0.00 0.00 39 1009.6
20260503200941 30 108 1.6 9.7 0.00 0.00 0.00 42 1009.8
20260503200438 30 289 1.6 3.2 0.00 0.00 0.00 41 1009.8
20260503195934 28 340 3.2 8.0 0.00 0.00 0.00 48 1010.0
20260503195432 28 185 1.6 8.0 0.00 0.00 0.00 48 1010.1
20260503194928 27 255 3.2 11.3 0.00 0.00 0.00 49 1010.4
20260503194425 26 213 4.8 9.7 0.00 0.00 0.00 49 1010.1
20260503193920 26 251 3.2 9.7 0.00 0.00 0.00 50 1010.4
20260503193416 27 301 6.4 9.7 0.00 0.00 0.00 48 1010.2
20260503192912 27 290 4.8 8.0 0.00 0.00 0.00 50 1010.5
20260503192408 26 284 4.8 9.7 0.00 0.00 0.00 52 1010.4
20260503191904 25 288 4.8 9.7 0.00 0.00 0.00 52 1010.5
20260503191402 25 285 3.2 11.3 0.00 0.00 0.00 54 1010.4
20260503190858 25 309 4.8 9.7 0.00 0.00 0.00 55 1010.6
20260503190355 25 276 6.4 9.7 0.00 0.00 0.00 52 1010.7
20260503185852 26 302 4.8 8.0 0.00 0.00 0.00 53 1010.6
20260503185349 24 261 6.4 9.7 0.00 0.00 0.00 55 1010.9
20260503184848 23 289 4.8 11.3 0.00 0.00 0.00 55 1010.8
20260503184344 25 287 4.8 8.0 0.00 0.00 0.00 55 1011.0
20260503183840 23 281 4.8 9.7 0.00 0.00 0.00 58 1011.0
20260503183338 24 314 3.2 8.0 0.00 0.00 0.00 56 1011.0
20260503182835 23 292 8.0 11.3 0.00 0.00 0.00 57 1011.1
20260503182334 23 291 6.4 11.3 0.00 0.00 0.00 59 1011.1
20260503181831 22 295 6.4 11.3 0.00 0.00 0.00 61 1011.1
20260503181328 22 207 3.2 4.8 0.00 0.00 0.00 62 1011.3
20260503180824 22 251 3.2 8.0 0.00 0.00 0.00 62 1011.3
20260503180322 22 190 3.2 3.2 0.00 0.00 0.00 62 1011.3
20260503175818 21 281 8.0 9.7 0.00 0.00 0.00 65 1011.3
20260503175317 22 178 1.6 4.8 0.00 0.00 0.00 66 1011.4
20260503174812 21 265 4.8 8.0 0.00 0.00 0.00 67 1011.7
20260503174310 21 109 1.6 3.2 0.00 0.00 0.00 68 1011.7
20260503173806 21 248 6.4 9.7 0.00 0.00 0.00 70 1011.8
20260503173302 20 282 4.8 8.0 0.00 0.00 0.00 70 1011.5
20260503172759 19 260 4.8 8.0 0.00 0.00 0.00 73 1011.6
20260503172256 20 299 8.0 9.7 0.00 0.00 0.00 73 1011.8
20260503171752 18 279 3.2 8.0 0.00 0.00 0.00 75 1011.7
20260503171249 19 299 4.8 4.8 0.00 0.00 0.00 74 1011.7
20260503170746 19 275 4.8 4.8 0.00 0.00 0.00 76 1011.7
20260503170243 19 303 1.6 4.8 0.00 0.00 0.00 76 1012.0
20260503160205 16 196 3.2 3.2 0.00 0.00 0.00 85 1012.2
20260503150635 16 158 0.0 0.0 0.00 0.00 0.00 87 1012.2
20260503150131 16 157 0.0 0.0 0.00 0.00 0.00 86 1012.2
20260503131025 12 27 0.0 0.0 0.00 0.00 0.00 99 1011.7
20260503130522 11 44 0.0 0.0 0.00 0.00 0.00 99 1011.8
20260503110413 12 150 0.0 0.0 0.00 0.00 0.00 98 1012.1
20260503090304 15 137 0.0 0.0 0.00 0.00 0.00 91 1012.6
20260503081237 14 113 0.0 1.6 0.00 0.00 0.00 93 1012.4
20260503080732 14 156 0.0 0.0 0.00 0.00 0.00 92 1012.0
20260503080230 14 171 0.0 1.6 0.00 0.00 0.00 92 1012.3
20260503072706 15 107 0.0 0.0 0.00 0.00 0.00 88 1012.6
20260503072203 15 107 0.0 1.6 0.00 0.00 0.00 88 1012.5
20260503071700 15 107 0.0 0.0 0.00 0.00 0.00 88 1012.3
20260503071157 15 107 0.0 1.6 0.00 0.00 0.00 88 1012.4
20260503070653 15 108 0.0 0.0 0.00 0.00 0.00 88 1012.3
20260503070152 15 116 0.0 0.0 0.00 0.00 0.00 88 1012.4
20260503060115 16 157 1.6 3.2 0.00 0.00 0.00 82 1011.9
20260503055107 16 263 0.0 0.0 0.00 0.00 0.00 82 1011.9
20260503054603 16 233 0.0 0.0 0.00 0.00 0.00 82 1012.1
20260503054100 16 178 0.0 0.0 0.00 0.00 0.00 82 1012.3
20260503053558 16 213 1.6 1.6 0.00 0.00 0.00 82 1012.3
20260503053056 16 196 1.6 1.6 0.00 0.00 0.00 82 1012.1
20260503052552 17 179 0.0 1.6 0.00 0.00 0.00 81 1012.4
20260503052049 17 169 0.0 0.0 0.00 0.00 0.00 80 1012.4
20260503051544 17 66 0.0 1.6 0.00 0.00 0.00 79 1012.5
20260503051042 17 123 0.0 0.0 0.00 0.00 0.00 79 1012.6
20260503050538 17 172 0.0 0.0 0.00 0.00 0.00 80 1012.6
20260503050035 17 188 0.0 0.0 0.00 0.00 0.00 79 1012.5
20260503045532 17 134 0.0 0.0 0.00 0.00 0.00 78 1012.7
20260503045030 17 153 0.0 0.0 0.00 0.00 0.00 78 1012.7
20260503044526 17 154 0.0 1.6 0.00 0.00 0.00 78 1012.7
20260503044024 17 114 0.0 3.2 0.00 0.00 0.00 78 1012.7
20260503043520 17 299 1.6 3.2 0.00 0.00 0.00 78 1012.5
20260503043017 17 204 1.6 1.6 0.00 0.00 0.00 78 1012.4
20260503042514 17 70 0.0 3.2 0.00 0.00 0.00 78 1012.6
20260503042010 17 219 1.6 3.2 0.00 0.00 0.00 77 1012.5
20260503041507 17 161 0.0 1.6 0.00 0.00 0.00 78 1012.5
20260503041005 17 166 0.0 1.6 0.00 0.00 0.00 77 1012.8
20260503040502 17 62 0.0 1.6 0.00 0.00 0.00 76 1012.5
20260503035958 17 121 1.6 4.8 0.00 0.00 0.00 76 1012.5
20260503035455 18 96 1.6 3.2 0.00 0.00 0.00 76 1012.6
20260503034953 18 91 1.6 3.2 0.00 0.00 0.00 76 1012.4
20260503034450 18 99 1.6 1.6 0.00 0.00 0.00 76 1012.3
20260503033947 18 164 0.0 3.2 0.00 0.00 0.00 76 1012.2
20260503033444 18 210 1.6 4.8 0.00 0.00 0.00 75 1012.0
20260503032943 18 183 4.8 4.8 0.00 0.00 0.00 75 1012.1
20260503032441 18 226 3.2 4.8 0.00 0.00 0.00 75 1012.2
20260503031938 18 173 1.6 4.8 0.00 0.00 0.00 75 1011.9
20260503031436 18 173 3.2 4.8 0.00 0.00 0.00 75 1012.0
20260503030932 18 274 3.2 8.0 0.00 0.00 0.00 75 1012.0
20260503030429 18 207 4.8 9.7 0.00 0.00 0.00 74 1012.0
20260503025926 19 233 4.8 14.5 0.00 0.00 0.00 73 1012.2
20260503025423 19 152 3.2 12.9 0.00 0.00 0.00 72 1011.9
20260503024920 19 79 3.2 11.3 0.00 0.00 0.00 71 1011.8
20260503024416 20 218 9.7 14.5 0.00 0.00 0.00 70 1012.0
20260503023914 20 193 4.8 12.9 0.00 0.00 0.00 69 1011.8
20260503023411 20 164 11.3 16.1 0.00 0.00 0.00 67 1012.1
20260503022908 20 190 6.4 9.7 0.00 0.00 0.00 66 1011.9
20260503022402 21 215 9.7 11.3 0.00 0.00 0.00 66 1011.8
20260503021858 22 174 1.6 4.8 0.00 0.00 0.00 63 1011.7
20260503021354 22 210 1.6 3.2 0.00 0.00 0.00 61 1011.3
20260503020851 22 263 0.0 1.6 0.00 0.00 0.00 61 1011.1
20260503020350 22 167 1.6 3.2 0.00 0.00 0.00 61 1010.8
20260503015846 22 188 0.0 3.2 0.00 0.00 0.00 61 1011.1
20260503015343 22 207 1.6 3.2 0.00 0.00 0.00 61 1011.0
20260503014838 22 163 3.2 3.2 0.00 0.00 0.00 61 1011.0
20260503014336 22 140 1.6 3.2 0.00 0.00 0.00 61 1011.2
20260503013834 22 157 0.0 1.6 0.00 0.00 0.00 60 1010.9
20260503013331 22 265 1.6 3.2 0.00 0.00 0.00 61 1010.8
20260503012828 22 177 1.6 4.8 0.00 0.00 0.00 62 1010.9
20260503012326 22 303 1.6 4.8 0.00 0.00 0.00 61 1010.8
20260503011822 22 188 3.2 3.2 0.00 0.00 0.00 61 1011.0
20260503011319 22 286 3.2 4.8 0.00 0.00 0.00 61 1010.9
20260503010815 22 173 1.6 3.2 0.00 0.00 0.00 60 1010.8
20260503010313 22 174 1.6 4.8 0.00 0.00 0.00 61 1011.0
20260503005809 22 330 4.8 8.0 0.00 0.00 0.00 61 1010.8
20260503005307 22 269 3.2 3.2 0.00 0.00 0.00 61 1010.8
20260503004803 22 230 1.6 8.0 0.00 0.00 0.00 60 1010.9
20260503004301 22 211 1.6 8.0 0.00 0.00 0.00 60 1010.9
20260503003758 23 275 3.2 8.0 0.00 0.00 0.00 60 1011.0
20260503003255 22 288 6.4 9.7 0.00 0.00 0.00 61 1010.9
20260503002752 22 306 8.0 9.7 0.00 0.00 0.00 59 1011.1
20260503002248 21 282 6.4 8.0 0.00 0.00 0.00 62 1011.1
20260503001745 22 307 4.8 9.7 0.00 0.00 0.00 61 1010.9
20260503001241 22 298 8.0 9.7 0.00 0.00 0.00 62 1011.0
20260503000739 22 185 4.8 4.8 0.00 0.00 0.00 61 1011.2
20260503000236 21 314 3.2 11.3 0.00 0.00 0.00 64 1011.0
20260502235733 21 298 4.8 9.7 0.00 0.00 0.00 63 1011.1
20260502235231 21 256 1.6 9.7 0.00 0.00 0.00 64 1011.1
20260502234727 22 248 3.2 8.0 0.00 0.00 0.00 62 1011.2
20260502234225 22 256 3.2 4.8 0.00 0.00 0.00 63 1011.5
20260502233720 21 171 1.6 8.0 0.00 0.00 0.00 64 1011.5
20260502233217 21 202 3.2 9.7 0.00 0.00 0.00 64 1011.2
20260502232713 20 181 1.6 9.7 0.00 0.00 0.00 67 1011.5
20260502232210 20 300 6.4 9.7 0.00 0.00 0.00 65 1011.6
20260502231707 21 318 6.4 8.0 0.00 0.00 0.00 65 1011.5
20260502231205 20 177 3.2 11.3 0.00 0.00 0.00 67 1011.5
20260502230703 21 310 4.8 11.3 0.00 0.00 0.00 66 1011.9